Home   Weather   Bukavu   Past weeks

Flag for Congo Dem. Rep. Past Weather in Bukavu, Congo Dem. Rep. — Yesterday and Last 2 Weeks

Now
75 °F

Scattered clouds.


Feels Like: 77 °F
Forecast: 53 / 69 °F
Wind: 12 mph from East

Location: Kigali Airport

Current Time: Apr 30, 2017 at 5:13:44 pm

Latest Report: Apr 30, 2017 at 4:30 pm


Visibility: N/A

Pressure: 30.09 "Hg (24.72 "Hg at 1710m altitude)

Humidity: 61%

Dew Point: 61 °F

Location of BukavuLocation

Past Weather in Bukavu — Graph

°F

Bukavu Temperature Yesterday

Maximum temperature yesterday: 79 °F (at 2:00 pm)
Minimum temperature yesterday: 64 °F (at 1:30 am)
Average temperature yesterday: 71 °F

High & Low Weather Summary for the Past Weeks

 TemperatureHumidityPressure
High81 °F (Apr 19, 2:00 pm)100% (Apr 19, 11:00 pm)30.27 "Hg (Apr 19, 11:00 pm)
Low59 °F (Apr 26, 5:00 am)48% (Apr 19, 3:30 pm)29.98 "Hg (Apr 19, 3:30 pm)
Average69 °F79%30.13 "Hg
* Reported Apr 19 9:00 am — Apr 30 4:00 pm, Bukavu, Weather by CustomWeather, © 2017

Note: Actual official high and low records may vary slightly from our data, if they occured in-between our weather recording intervals... More about our weather records

Advertising

Bukavu Weather History for the Previous 24 Hours

Scroll right to see more
 ConditionsComfort  
Time TempWeatherWind HumidityBarometerVisibility
4:00 pm
Sun, Apr 30
77 °FScattered clouds.8 mph54%30.09 "HgN/A
3:30 pm77 °FScattered clouds.7 mph51%30.09 "HgN/A
3:00 pm79 °FScattered clouds.12 mph51%30.09 "HgN/A
2:30 pm79 °FScattered clouds.9 mph54%30.09 "HgN/A
2:00 pm81 °FScattered clouds.5 mph51%30.12 "HgN/A
1:30 pm77 °FScattered clouds.8 mph57%30.12 "HgN/A
1:00 pm77 °FPartly sunny.7 mph57%30.15 "HgN/A
12:30 pm77 °FPartly sunny.8 mph61%30.18 "HgN/A
12:00 pm75 °FPartly sunny.9 mph65%30.18 "HgN/A
11:30 am73 °FScattered clouds.10 mph65%30.21 "HgN/A
11:00 am75 °FScattered clouds.8 mph61%30.24 "HgN/A
10:30 am73 °FScattered clouds.10 mph65%30.24 "HgN/A
10:00 am73 °FScattered clouds.10 mph69%30.24 "HgN/A
9:30 am72 °FScattered clouds.9 mph73%30.24 "HgN/A
9:00 am68 °FScattered clouds.2 mph83%30.24 "HgN/A
8:30 am68 °FScattered clouds.No wind83%30.24 "HgN/A
8:00 am66 °FScattered clouds.5 mph88%30.24 "HgN/A
7:30 am66 °FScattered clouds.6 mph88%30.21 "HgN/A
7:00 am64 °FScattered clouds.3 mph94%30.21 "HgN/A
6:30 am64 °FScattered clouds.No wind94%30.18 "HgN/A
5:30 am64 °FPartly cloudy.1 mph94%30.18 "HgN/A
5:00 am64 °FPartly cloudy.2 mph94%30.15 "HgN/A
4:30 am66 °FPartly cloudy.2 mph88%30.15 "HgN/A
4:00 am64 °FPartly cloudy.2 mph88%30.15 "HgN/A
3:30 am66 °FPartly cloudy.2 mph88%30.15 "HgN/A
3:00 am66 °FPartly cloudy.2 mph88%30.15 "HgN/A
2:30 am66 °FPartly cloudy.No wind88%30.15 "HgN/A
2:00 am66 °FPartly cloudy.3 mph88%30.18 "HgN/A
1:30 am66 °FPassing clouds.6 mph88%30.18 "HgN/A
1:00 am66 °FPassing clouds.6 mph83%30.18 "HgN/A
12:30 am66 °FPassing clouds.5 mph83%30.18 "HgN/A
12:00 am68 °FPassing clouds.3 mph78%30.18 "HgN/A
11:30 pm
Sat, Apr 29
70 °FPassing clouds.No wind73%30.18 "HgN/A
11:00 pm70 °FPassing clouds.2 mph69%30.18 "HgN/A
10:30 pm70 °FPassing clouds.3 mph69%30.18 "HgN/A
9:30 pm72 °FPassing clouds.5 mph65%30.18 "HgN/A
9:00 pm72 °FPassing clouds.5 mph65%30.18 "HgN/A
8:00 pm72 °FPassing clouds.3 mph65%30.15 "HgN/A
7:30 pm73 °FPassing clouds.3 mph61%30.12 "HgN/A
7:00 pm73 °FPassing clouds.3 mph61%30.12 "HgN/A
6:30 pm73 °FPassing clouds.5 mph61%30.09 "HgN/A
6:00 pm73 °FPassing clouds.3 mph61%30.09 "HgN/A
5:30 pm75 °FScattered clouds.2 mph57%30.09 "HgN/A
5:00 pm75 °FScattered clouds.7 mph57%30.09 "HgN/A
Weather by CustomWeather, © 2017

See weather overviewHow to use our weather pages